Showing default

ETV-A1, 51060

Orbit data source: Space-Track

ETV-A1, 51060 is a payload satellite owned by Sen (UK) in SSO that was launched on Thu, 13 Jan 2022 UTC via an FALCON 9 launch vehicle from the Air Force Eastern Test Range (AFETR). Payload-class satellites include a variety of spacecraft equipped with specific instruments for various scientific and technological missions. These include communications satellites like Starlink; space stations such as the ISS; scientific satellites like the Hubble; Earth observation satellites from companies like Planet Labs, Umbra, and HawkEye 360; GPS; miniature CubeSats for education and research; and military/defense satellites.

Loading next visibility...
Identifier
51060, 2022-002CE
Orbit
SSO
Country
Flag of UKUK
Related business
Manufacturer
NanoAvionics
Mission
Operational Commercial Imaging
Bus & Motor
CUBESAT 16U, Unknown motor
Mass
~20 kg wet, ~20 kg dry
Launch date (UTC)
2022-01-13 (5 years ago)
Launch vehicle
FALCON 9
Launch site
Air Force Eastern Test Range (AFETR)
Object type
Payload
Rocket body
Debris
Shape & HBR
Box + 2 Pan, 0.2 m
Radar Cross Section
0.100 m², Medium (>0.1 m² and < 1m²)

Expand to show TLE details & history
Last TLE update: 13 hours ago

TLE from 13 hours ago
0 ETV-A1
1 51060U 22002CE  26235.92133940  .00010790  00000-0  25529-3 0  9990
2 51060  97.2827 302.0711 0006732  99.0914 261.1096 15.41953840256270
Epoch: 2026-08-23T22:06Z
TLE epoch observation values (Epoch: 2026-08-23T22:06:43.724Z)
Latitude
0.00006°
Longitude
-1.82155°
Altitude
444.179 km
Speed
7.645 km/s
True Right ascension
20h 08m 17s
True Declination
0° 00' 00"
Sunlit
Object was in full shadow at epoch
Visualization orbit readout
Latitude
Unknown
Longitude
Unknown
Altitude
Unknown
Speed
Unknown
Apparent Right ascension
Unknown
Apparent Declination
Unknown
Sunlit
N/A
Visualization observer readout
Local Sidereal Time
02:31:50
Azimuth
Unknown
Elevation
Unknown
Doppler factor
Unknown
Orbital elements
Apogee altitude
441.863 km
Perigee altitude
432.687 km
Semi-major axis
6,815.412 km
Eccentricity
0.00067
Inclination
97.2827°
RAAN
302.0711°
Arg. of periapsis
99.0914°
True anomaly
261.03339°
Mean anomaly
261.1096°
Eccentric anomaly
261.0715°
Mean motion
3.85749 °/min
Orbital period
93.32 mins
BSTAR
0.00025529
Loading maneuver chart data...
Computing Atmospheric mass density...
Loading historical data...
Loading historical data...
Loading historical data...
Loading historical data...
Loading historical data...
Loading historical data...
Loading historical data...

Documentation

Showing up to 5 results
|